TimeCST,TemperatureF,Dew PointF,Humidity,Sea Level PressureIn,VisibilityMPH,Wind Direction,Wind SpeedMPH,Gust SpeedMPH,PrecipitationIn,Events,Conditions,WindDirDegrees,DateUTC
12:13 AM,35.6,35.6,100,30.25,8.0,SSE,5.8,-,N/A,,Overcast,160,2011-12-12 06:13:00
12:55 AM,35.8,35.8,100,30.25,7.0,SSE,3.5,-,0.00,,Overcast,150,2011-12-12 06:55:00
1:51 AM,35.6,35.6,100,30.25,8.0,SSE,3.5,-,N/A,Rain,Light Rain,160,2011-12-12 07:51:00
1:55 AM,36.1,36.1,100,30.25,8.0,Calm,Calm,-,0.00,,Light Drizzle,0,2011-12-12 07:55:00
2:12 AM,35.6,35.6,100,30.25,9.0,South,5.8,-,N/A,,Overcast,170,2011-12-12 08:12:00
2:55 AM,36.3,36.3,100,30.25,9.0,SSE,3.5,-,0.00,,Overcast,150,2011-12-12 08:55:00
3:04 AM,35.6,35.6,100,30.25,8.0,Calm,Calm,-,N/A,Rain,Light Rain,0,2011-12-12 09:04:00
3:13 AM,35.6,35.6,100,30.25,9.0,Calm,Calm,-,N/A,,Overcast,0,2011-12-12 09:13:00
3:55 AM,36.1,36.1,100,30.25,9.0,Variable,4.6,-,0.00,,Overcast,0,2011-12-12 09:55:00
4:13 AM,37.4,35.6,93,30.25,10.0,SSE,6.9,-,N/A,,Overcast,160,2011-12-12 10:13:00
4:23 AM,37.4,35.6,93,30.24,10.0,South,6.9,-,N/A,,Overcast,170,2011-12-12 10:23:00
4:52 AM,37.4,35.6,93,30.25,9.0,South,5.8,-,N/A,,Overcast,170,2011-12-12 10:52:00
4:55 AM,36.5,36.3,99,30.25,9.0,SSE,5.8,-,0.00,,Overcast,160,2011-12-12 10:55:00
5:16 AM,35.6,35.6,100,30.25,10.0,SSE,4.6,-,N/A,,Overcast,160,2011-12-12 11:16:00
5:24 AM,35.6,35.6,100,30.25,9.0,South,4.6,-,N/A,,Light Drizzle,170,2011-12-12 11:24:00
5:53 AM,35.6,35.6,100,30.25,8.0,South,6.9,-,N/A,,Overcast,170,2011-12-12 11:53:00
5:55 AM,36.3,36.3,100,30.25,8.0,South,8.1,-,0.01,,Overcast,180,2011-12-12 11:55:00
6:02 AM,35.6,35.6,100,30.25,8.0,South,9.2,-,N/A,Rain,Light Rain,180,2011-12-12 12:02:00
6:13 AM,37.4,37.4,100,30.25,9.0,South,6.9,-,N/A,,Overcast,170,2011-12-12 12:13:00
6:29 AM,37.4,37.4,100,30.25,9.0,South,10.4,-,N/A,,Light Drizzle,180,2011-12-12 12:29:00
6:38 AM,37.4,37.4,100,30.26,10.0,South,8.1,-,N/A,,Mostly Cloudy,190,2011-12-12 12:38:00
6:55 AM,35.6,35.6,100,30.25,6.0,SSE,5.8,-,N/A,,Light Drizzle,160,2011-12-12 12:55:00
7:55 AM,35.6,35.6,100,30.26,7.0,SSE,4.6,-,N/A,,Overcast,160,2011-12-12 13:55:00
8:24 AM,35.6,35.6,100,30.24,6.0,South,4.6,-,N/A,,Light Drizzle,170,2011-12-12 14:24:00
8:55 AM,37.4,37.4,100,30.27,5.0,SSE,3.5,-,N/A,,Light Drizzle,160,2011-12-12 14:55:00
9:55 AM,39.2,37.4,93,30.29,6.0,SSW,5.8,-,N/A,,Overcast,200,2011-12-12 15:55:00
10:32 AM,39.2,37.4,93,30.26,6.0,SSW,4.6,-,N/A,Rain,Light Rain,210,2011-12-12 16:32:00
10:55 AM,39.2,39.2,100,30.29,6.0,SSW,8.1,-,N/A,Rain,Light Rain,210,2011-12-12 16:55:00
11:55 AM,39.2,39.2,100,30.27,7.0,SSW,4.6,-,N/A,,Scattered Clouds,210,2011-12-12 17:55:00
12:39 PM,41.0,39.2,93,30.24,10.0,Variable,4.6,-,N/A,Rain,Light Rain Showers,0,2011-12-12 18:39:00
12:55 PM,41.0,39.2,93,30.27,10.0,SW,3.5,-,N/A,,Overcast,220,2011-12-12 18:55:00
1:55 PM,41.0,39.2,93,30.27,10.0,South,4.6,-,N/A,,Overcast,170,2011-12-12 19:55:00
2:55 PM,41.0,35.6,81,30.27,10.0,South,4.6,-,N/A,,Overcast,170,2011-12-12 20:55:00
3:55 PM,39.2,35.6,87,30.28,10.0,SSE,5.8,-,N/A,,Overcast,160,2011-12-12 21:55:00
4:55 PM,39.2,33.8,81,30.29,10.0,South,5.8,-,N/A,,Overcast,170,2011-12-12 22:55:00
5:55 PM,39.2,33.8,81,30.30,10.0,South,6.9,-,N/A,,Overcast,180,2011-12-12 23:55:00
6:55 PM,37.4,32.0,81,30.31,10.0,South,4.6,-,N/A,,Overcast,170,2011-12-13 00:55:00
7:55 PM,37.4,32.0,81,30.31,10.0,South,5.8,-,N/A,,Overcast,180,2011-12-13 01:55:00
8:55 PM,37.4,32.0,81,30.32,10.0,South,3.5,-,N/A,,Overcast,180,2011-12-13 02:55:00
9:55 PM,37.4,32.0,81,30.33,10.0,SSW,4.6,-,N/A,,Overcast,200,2011-12-13 03:55:00
10:55 PM,37.4,32.0,81,30.34,10.0,SW,4.6,-,N/A,,Overcast,220,2011-12-13 04:55:00
11:55 PM,35.6,33.8,93,30.35,10.0,Calm,Calm,-,N/A,,Overcast,0,2011-12-13 05:55:00